Location: Göttingen
(51.5413°N, 9.9158°E)
Time: 17:42:27
(UTC+02:00)

Tiros 1 despin weight - Pass Details

Date: 27 May 2022
Orbit: 591 x 639 km, 48.2° (Epoch: 04 July)

Event Time Altitude Azimuth Distance (km) Brightness Sun altitude
Rises 00:35:39 0° 277° (W) 2,839 ? -16.6°
Reaches altitude 10° 00:38:14 10° 264° (W) 1,928 ? -16.7°
Enters shadow 00:41:42 25° 213° (SSW) 1,214 ? -16.8°
